Showing default

SES 12, 43488

Orbit data source: Space-Track

SES 12, 43488 is a payload satellite owned by SES (LU) in GEO that was launched on Mon, 04 Jun 2018 UTC via an FALCON 9 launch vehicle from the Air Force Eastern Test Range (AFETR). Payload-class satellites include a variety of spacecraft equipped with specific instruments for various scientific and technological missions. These include communications satellites like Starlink; space stations such as the ISS; scientific satellites like the Hubble; Earth observation satellites from companies like Planet Labs, Umbra, and HawkEye 360; GPS; miniature CubeSats for education and research; and military/defense satellites.

Not visible in the next 10 days
Identifier
43488, 2018-049A
Orbit
GEO
Country
Flag of LULU / SES
Related business
Manufacturer
Airbus/Toulouse
Mission
Operational Commercial Communications
Bus & Motor
EUROSTAR 3000E, EOR
Mass
5,384 kg wet, ~3,000 kg dry
Launch date (UTC)
2018-06-04 (8 years ago)
Launch vehicle
FALCON 9
Launch site
Air Force Eastern Test Range (AFETR)
Object type
Payload
Rocket body
Debris
Shape & HBR
Box + 2 Pan, 19.6 m
Radar Cross Section
49.877 m², Large (>1 m²)

Expand to show TLE details & history
Last TLE update: 2 days ago

TLE from 2 days ago
0 SES 12
1 43488U 18049A   26171.33948226 -.00000274  00000-0  00000+0 0  9996
2 43488   0.0148  14.7336 0000672 264.4074 206.6153  1.00269236 29450
Epoch: 2026-06-20T08:08Z
TLE epoch observation values (Epoch: 2026-06-20T08:08:51.267Z)
Latitude
0.03047°
Longitude
94.99604°
Altitude
35,789.337 km
Speed
3.075 km/s
True Right ascension
08h 23m 03s
True Declination
0° 01' 50"
Sunlit
Object was in daylight at epoch
Visualization orbit readout
Latitude
Unknown
Longitude
Unknown
Altitude
Unknown
Speed
Unknown
Apparent Right ascension
Unknown
Apparent Declination
Unknown
Sunlit
N/A
Visualization observer readout
Local Sidereal Time
00:55:22
Azimuth
Unknown
Elevation
Unknown
Doppler factor
Unknown
Orbital elements
Apogee altitude
35,791.214 km
Perigee altitude
35,785.546 km
Semi-major axis
42,166.517 km
Eccentricity
0.00007
Inclination
0.0148°
RAAN
14.7336°
Arg. of periapsis
264.4074°
True anomaly
206.61185°
Mean anomaly
206.6153°
Eccentric anomaly
206.61358°
Mean motion
0.25066 °/min
Orbital period
1,436.19 mins
BSTAR
0
Loading maneuver chart data...
Computing Atmospheric mass density...
Loading historical data...
Loading historical data...
Loading historical data...
Loading historical data...
Loading historical data...
Loading historical data...
Loading historical data...
Other satellites on launch #49 in the year 2018 (2018-06-04 UTC)

Documentation

Showing up to 5 results
|